Location: Saline Valley Store (historical)
(37.6734°N, 88.4989°W)
Time: 00:44:16
(UTC+00:00)

Daily predictions for brighter satellites

Satellite Brightness Start Highest point End
(mag) Time Altitude Azimuth Time Altitude Azimuth Time Altitude Azimuth
H-2A R/B 2.8 00:16:38 10° SE 00:20:49 29° ENE 00:25:06 10° N
Cosmos 158 Rocket 4.0 00:16:12 10° NNW 00:21:26 66° ENE 00:26:30 10° SSE
Iridium 4 Rocket 3.4 00:19:31 10° SSE 00:24:12 62° E 00:29:23 10° N
ARGOS 4.2 00:20:24 10° ESE 00:24:43 26° ENE 00:29:04 10° NNE
Cosmos 1437 3.6 00:25:56 10° NNE 00:28:29 25° ENE 00:31:03 10° SE
SJ 16-02 2.9 00:25:28 10° SW 00:29:35 40° WNW 00:33:44 10° N
CZ-2C R/B 3.9 00:28:17 10° NE 00:32:17 20° E 00:36:17 10° SE
Milstar 3 Cent rocket 4.0 00:28:17 10° SSW 00:33:11 18° SSE 00:36:50 10° SE
Cosmos 1939 Rocket 3.7 00:29:10 10° S 00:33:11 57° W 00:37:17 10° NNW
Lacrosse 5 rocket 4.2 00:31:59 10° WNW 00:34:05 13° NNW 00:36:15 10° N
Helios 1A Rocket 3.8 00:30:15 10° S 00:34:14 53° W 00:38:16 10° NNW
SL-16 R/B 3.8 00:29:14 10° NW 00:34:26 38° WSW 00:39:35 10° S
Cosmos 1378 Rocket 4.1 00:30:14 10° NNW 00:34:30 63° W 00:38:45 10° S
NOSS 2-2 (E) 2.9 00:32:08 10° SSW 00:35:36 72° ESE 00:39:15 10° NE
Okean 2 Rocket 4.2 00:32:41 10° SE 00:36:15 23° E 00:39:49 10° NE
Cosmos 1900 4.4 00:33:57 10° NNW 00:39:08 89° ENE 00:44:17 10° SSE
CZ-2D R/B 3.9 00:35:54 10° S 00:39:44 62° W 00:43:36 10° NNW
Cosmos 2263 Rocket 2.4 00:34:25 10° SSW 00:39:58 75° WNW 00:45:34 10° NNE
Okean-O 3.0 00:35:49 10° S 00:40:13 68° WSW 00:44:39 10° NNW
ATLAS 2AS CENTAUR R/B 4.5 00:38:06 10° ESE 00:40:19 11° ESE 00:40:32 11° E
HJ-1C 3.8 00:38:50 10° SE 00:41:55 39° ENE 00:45:01 10° N
DELTA 2 R/B (1) 3.6 00:36:29 10° WNW 00:42:03 86° NNE 00:46:52 14° ESE
SJ-11-01 4.5 00:37:49 10° SSE 00:42:22 50° ENE 00:46:55 10° N
Meteor 2-9 Rocket 4.3 00:37:32 10° S 00:43:24 85° E 00:49:15 10° N
NOSS 2-2 (D) 2.9 00:40:37 10° SSW 00:44:07 67° ESE 00:47:43 10° NE
CZ-2C R/B 3.1 00:40:15 10° SSE 00:45:20 69° ENE 00:50:45 10° N
Cosmos 1844 Rocket 3.6 00:43:06 10° SSE 00:47:23 23° ESE 00:51:43 10° NE
Cosmos 1300 Rocket 4.3 00:44:26 10° SSE 00:48:15 30° E 00:52:06 10° NNE
USA 116 4.0 00:49:02 10° N 00:52:31 66° WNW 00:56:25 10° SSW
Ariane Rocket 4.0 00:50:37 14° ESE 00:53:54 27° ENE 00:58:07 10° N
YAOGAN 1 3.0 00:49:52 10° S 00:54:09 66° WSW 00:58:28 10° NNW
USA 186 3.1 00:54:52 19° ENE 00:55:03 20° ENE 00:57:25 10° NNE
Cosmos 1943 3.1 00:54:39 10° NNW 01:00:19 74° ENE 01:05:58 10° SSE
Okean 2 3.8 00:57:18 10° NNW 01:01:27 66° W 01:05:33 10° S
Cosmos 1464 Rocket 4.0 00:55:49 10° SSE 01:01:44 54° E 01:07:42 10° NNE
Cosmos 2298 Rocket 4.4 00:57:41 10° S 01:02:37 40° ESE 01:07:36 10° NNE
Meteor 1-12 Rocket 4.4 00:57:57 10° S 01:03:43 55° E 01:09:25 10° NNE
CSL-04 Debris 4.3 01:02:18 10° S 01:07:41 76° WSW 01:13:06 10° NNW
CZ-4 R/B 3.4 01:08:08 10° SSW 01:11:55 32° W 01:15:43 10° NNW
Meteor 1-21 4.4 01:07:44 10° NNW 01:13:20 77° W 01:18:53 10° S
CSL-04 Rocket 4.0 01:11:43 10° S 01:17:03 66° WSW 01:22:30 10° NNW
Cosmos 2151 Rocket 3.8 01:13:09 10° SSE 01:17:23 47° E 01:21:40 10° NNE
Cosmos 1867 3.9 01:13:41 10° NNW 01:18:59 49° NE 01:21:23 30° ESE
Cosmos 1603 4.1 01:14:25 10° NNW 01:20:01 63° WSW 01:25:31 10° S
CZ-2C R/B 1.0 01:18:07 10° WSW 01:21:35 53° S 01:22:04 47° SE
Cosmos 1025 Rocket 3.3 01:18:15 10° N 01:22:30 47° E 01:23:51 35° SE
USA 102 4.4 01:22:51 34° SSE 01:25:09 86° WSW 01:30:50 10° NNW
Cosmos 372 Rocket 4.1 01:22:48 10° SSW 01:28:02 76° WNW 01:33:18 10° NNE
Cosmos 1891 Rocket 4.5 01:23:12 10° S 01:29:24 83° W 01:35:30 10° N
Cosmos 2150 Rocket 3.9 01:27:16 10° S 01:32:34 73° ESE 01:37:59 10° NNE
DMSP B5D2-2 4.0 01:27:40 10° NNE 01:32:56 61° ESE 01:38:08 10° S
BREEZE-M DEB (TANK) 3.6 01:35:44 10° NW 01:39:14 55° NE 01:42:24 33° E
Cosmos 1125 Rocket 3.5 01:37:33 10° S 01:42:44 58° ESE 01:47:57 10° NNE
SJ-6B 2.7 01:44:19 64° NNE 01:44:19 64° NNE 01:47:38 10° N
Cosmos 1707 3.2 01:41:01 10° NNW 01:44:47 57° W 01:46:32 28° SSW
Resurs 01 Rocket 3.4 01:49:34 19° NNE 01:49:34 19° NNE 01:51:23 10° NNE
USA 234 3.2 01:45:40 10° NE 01:52:14 89° NW 01:58:48 10° SW
ISS -1.6 01:49:26 10° W 01:52:14 23° NNW 01:53:13 20° N
Cosmos 2034 Rocket 4.2 01:52:26 10° SSW 01:58:48 74° W 02:05:10 10° N
H-2A R/B 3.8 01:55:57 10° SSW 02:00:10 28° W 02:04:28 10° NW
Nadezhda 4 Rocket 3.8 01:54:18 10° N 02:00:27 89° E 02:03:08 36° S
Cosmos 468 4.4 01:56:28 10° NNW 02:01:48 69° ENE 02:01:53 69° ENE
ARGOS 4.5 01:59:50 10° SSW 02:04:45 37° W 02:09:43 10° NNW
In-Cosmos 22 4.5 02:00:10 10° NNW 02:05:23 62° W 02:07:58 30° SSW
NOSS 3-2 (C) 4.5 01:59:50 10° NNW 02:07:07 45° NE 02:08:32 42° ENE
CZ-2C R/B 3.5 02:07:26 10° N 02:12:47 50° WNW 02:18:09 10° SW
Cosmos 1048 Rocket 4.0 02:10:12 10° NNW 02:15:16 81° N 02:15:16 81° N
Cosmos 1844 3.9 02:14:06 10° SSW 02:19:48 68° WNW 02:25:27 10° NNE
DELTA 2 R/B (1) 4.5 02:23:07 10° W 02:27:38 39° SW 02:27:38 39° SW
ATLAS 2AS CENTAUR R/B 3.1 02:22:10 10° SSW 02:33:17 38° NE 02:37:51 10° NE
Cosmos 1844 Rocket 3.7 02:25:41 10° SW 02:30:57 43° WNW 02:36:15 10° N
Cosmos 1634 Rocket 4.0 02:32:53 71° N 02:32:53 71° N 02:38:20 10° N
Cosmos 2285 Rocket 4.4 02:31:48 10° SSW 02:37:59 59° WNW 02:44:15 10° N
SPOT 3 Rocket 4.5 02:46:18 45° NW 02:46:18 45° NW 02:50:06 10° NNW
CENTAUR R/B 3.1 02:38:50 10° NNW 02:47:07 70° NE 02:47:17 70° ENE
ATLAS 3B R/B 4.1 02:47:12 10° NNW 02:51:46 27° NNE 02:51:46 27° NNE
USA 238 DEB 3.9 02:48:26 10° NW 02:55:26 73° W 02:55:26 73° W
USA 238 3.9 02:48:32 10° NW 02:55:31 74° W 02:55:31 74° W
ATLAS 2AS CENTAUR R/B 4.4 04:14:42 10° WSW 04:21:34 31° NW 04:28:25 10° NNE
Lacrosse 5 4.4 08:09:35 18° NE 08:09:35 18° NE 08:10:53 10° NE
USA 267 4.2 08:00:11 10° NE 08:04:18 42° NE 08:04:18 42° NE
ADEOS II 4.2 08:20:31 10° N 08:22:11 21° N 08:22:11 21° N
IDEFIX/ARIANE 42P 3.9 08:33:13 10° NNE 08:36:52 38° ENE 08:36:52 38° ENE
USA 234 4.4 08:33:16 10° E 08:39:11 39° NNE 08:45:07 10° NNW
ARIANE 5 R/B 3.9 08:40:23 10° NNE 08:43:09 33° NNE 08:43:09 33° NNE
H-2A R/B 4.2 08:59:16 10° SE 09:02:52 26° ENE 09:06:32 10° NNE
Meteor 1-26 Rocket 4.4 09:13:43 58° N 09:13:43 58° N 09:18:03 10° N
ASTEX 1 3.9 09:10:23 10° N 09:14:18 56° N 09:14:18 56° N
BREEZE-M DEB (TANK) 3.9 09:13:55 49° SSW 09:16:16 68° SSE 09:20:32 10° ENE
Cosmos 1697 Rocket 3.7 09:19:35 34° NNW 09:19:35 34° NNW 09:23:26 10° N
CZ-2C R/B 3.9 09:14:16 10° NNE 09:18:58 35° E 09:23:04 13° SSE
SL-4 R/B 4.1 09:19:51 22° SE 09:20:22 22° SE 09:24:00 10° ENE
COSMOS 2441 4.5 09:15:35 10° NNE 09:20:30 71° ESE 09:20:38 71° ESE
Cosmos 1980 Rocket 2.1 09:22:31 70° NW 09:22:31 70° NW 09:27:57 10° NNE
Cosmos 2322 Rocket 4.0 09:23:28 10° SSE 09:28:08 27° ESE 09:32:50 10° NE
Landsat 5 4.4 09:24:19 10° SSE 09:28:41 52° ENE 09:33:05 10° N
Cosmos 2263 Rocket 3.7 09:29:52 10° N 09:35:05 36° ENE 09:40:17 10° SE
SL-16 R/B 3.4 09:31:25 14° S 09:35:49 40° ESE 09:41:05 10° NE
Meteor 1-14 Rocket 4.0 09:35:29 10° N 09:41:05 82° W 09:46:37 10° S
CZ-2C R/B 4.0 09:37:58 10° N 09:40:05 31° N 09:40:05 31° N
Spot 4 Rocket 4.5 09:37:16 10° N 09:41:39 44° NW 09:41:39 44° NW
NOSS 3-3 (A) 3.7 09:45:00 49° SW 09:46:38 79° WNW 09:52:57 10° NNE
NOSS 3-3 (C) 3.7 09:45:10 49° SW 09:46:46 79° WNW 09:53:01 10° NNE
Lacrosse 5 3.3 09:48:47 23° NW 09:49:12 23° NNW 09:53:15 10° NNE
CSL-04 DEB 4.4 09:45:41 10° SSE 09:49:56 88° ENE 09:54:18 10° NNW
Cosmos 1238 Rocket 3.9 09:43:45 10° NNW 09:50:18 69° W 09:56:12 10° S
Meteor 2-6 Rocket 4.1 09:48:56 25° S 09:52:17 84° W 09:58:05 10° N
BREEZE-M DEB (TANK) 4.5 09:50:54 36° W 09:54:25 76° NNW 10:22:16 10° ENE
Cosmos 921 Rocket 2.8 09:55:09 64° W 09:55:25 67° WNW 09:59:36 10° N
CZ-4C R/B 4.0 09:57:19 35° NNW 09:57:19 35° NNW 09:59:32 10° NNW
Meteor 1-5 Rocket 4.2 09:53:07 10° N 09:58:27 75° E 10:03:52 10° SSE
Cosmos 44 3.7 09:58:36 37° NW 09:58:37 37° NW 10:02:53 10° NNE
Cosmos 2228 Rocket 3.2 10:01:20 48° W 10:01:31 48° W 10:05:48 10° N
IRIDIUM 114 4.3 10:00:15 10° N 10:05:30 89° E 10:10:43 10° S
Cosmos 1934 Rocket 4.3 10:04:55 10° NNW 10:10:30 40° W 10:16:07 10° SSW
Meteor 1-4 Rocket 2.2 10:09:31 43° SSW 10:10:32 77° W 10:14:01 10° N
X-37B 2.6 10:10:31 18° NNW 10:11:38 21° N 10:14:11 10° ENE
ADEOS 4.0 10:08:27 10° NNE 10:13:38 65° ESE 10:18:48 10° S
IRIDIUM 103 4.2 10:09:24 10° N 10:14:38 75° W 10:19:49 10° S
Cosmos 1536 4.2 10:12:37 10° N 10:16:30 42° E 10:20:21 10° SSE
IDEFIX/ARIANE 42P 3.9 10:13:44 10° NNW 10:17:30 20° WNW 10:17:40 20° WNW
ADEOS Rocket 3.3 10:12:53 10° SSE 10:19:58 85° ENE 10:26:21 10° NNW
Cosmos 1484 Rocket 3.6 10:16:19 10° NNE 10:20:14 53° E 10:24:08 10° S
USA 234 3.2 10:15:28 10° SSE 10:21:56 64° SW 10:28:25 10° NW
Cosmos 1869 Rocket 3.5 10:19:12 10° NNW 10:23:28 57° W 10:27:41 10° S
ARIANE 5 R/B 4.4 10:21:51 10° NW 10:23:29 12° NW 10:23:29 12° NW
ALOS 2.9 10:19:22 10° NNE 10:23:58 58° E 10:28:33 10° S
Meteor 1-11 Rocket 3.8 10:19:41 10° N 10:25:30 84° E 10:31:08 10° S
Cosmos 1153 Rocket 4.5 10:20:50 10° N 10:27:13 79° W 10:33:30 10° S
Cosmos 1862 Rocket 4.5 10:25:01 10° SSE 10:29:16 51° E 10:33:30 10° NNE
ERS-2 2.2 10:26:13 10° S 10:29:45 49° W 10:33:20 10° NNW
Meteor 1-31 Rocket 3.4 10:27:18 10° NNE 10:31:05 57° E 10:34:52 10° S
IRIDIUM 106 4.5 10:27:52 10° NNW 10:32:54 49° W 10:37:53 10° SSW
FALCON 9 DEB 3.0 10:31:12 25° SW 10:33:02 86° NW 10:36:29 10° NE
Cosmos 1605 Rocket 4.4 10:27:58 10° NNW 10:33:56 43° W 10:39:54 10° SSW
Cosmos 841 Rocket 3.9 10:29:00 10° S 10:34:08 66° ESE 10:39:21 10° NNE
Meteor 1-27 Rocket 3.8 10:28:42 10° SSW 10:34:36 75° W 10:40:33 10° N
SJ 16-02 1.4 10:34:12 10° NNW 10:38:29 53° WSW 10:42:45 10° S
H-2A R/B 3.0 10:35:10 10° SSW 10:38:44 25° W 10:42:23 10° NW
PSLV R/B 4.5 10:36:19 10° NNW 10:39:53 28° WNW 10:42:13 17° WSW
Cosmos 1763 Rocket 3.8 10:39:24 10° SW 10:44:32 49° WNW 10:49:42 10° N
Cosmos 1000 Rocket 4.5 10:39:10 10° S 10:45:23 84° W 10:51:35 10° N
Cosmos 1570 Rocket 4.1 10:41:30 10° SSW 10:46:47 85° ESE 10:52:09 10° NNE
Cosmos 1812 4.2 10:47:59 16° W 10:49:00 18° WNW 10:51:38 10° NNW
Cosmos 2360 Rocket 2.3 10:50:33 10° SSW 10:56:13 84° ESE 11:01:55 10° NNE
ERBS 4.1 10:54:41 12° WNW 10:56:34 18° NW 10:58:58 10° N
SJ-12 4.2 10:52:45 10° NNE 10:56:53 73° ESE 11:01:00 10° S
CZ-2C R/B 3.5 10:52:47 10° NNW 10:56:59 26° WNW 11:01:12 10° WSW
CZ-4B R/B 1.8 10:55:24 10° SSW 10:58:16 35° W 11:01:14 10° NNW
SL-4 R/B 2.5 10:55:28 11° WSW 10:59:44 59° NW 11:04:29 10° NE
Meteor 2-20 4.4 10:55:09 10° S 11:01:17 81° W 11:07:26 10° N
COSMO-SKYMED 1 3.2 10:57:40 10° SSE 11:01:57 63° ENE 11:06:15 10° N
SL-8 R/B 3.9 10:57:29 10° NW 11:02:16 75° NNE 11:07:02 10° ESE
Cosmos 1666 3.5 11:00:49 10° NNW 11:04:10 29° W 11:07:28 10° SSW
Cosmos 1980 Rocket 4.2 11:06:10 10° WNW 11:07:18 11° NW 11:08:26 10° NW
DEBRIS 3.3 11:04:41 10° WNW 11:07:35 71° SW 11:16:08 10° SE
Cosmos 2100 Rocket 4.1 11:02:39 10° NNW 11:08:55 59° W 11:15:07 10° S
METEOR-M 4.2 11:03:52 10° N 11:09:09 61° WNW 11:14:24 10° SSW
Cosmos 990 Rocket 4.4 11:05:47 10° NNW 11:10:39 42° WSW 11:15:31 10° S
Cosmos 1802 Rocket 4.0 11:05:29 10° N 11:11:40 76° W 11:17:55 10° S
Cosmos 2322 Rocket 2.8 11:06:42 10° SW 11:11:56 38° WNW 11:17:14 10° N
FENGYUN 3A 4.0 11:08:19 10° N 11:13:27 46° WNW 11:18:34 10° SW
Cosmos 44 Rocket 3.3 11:09:42 10° SW 11:14:21 65° WNW 11:19:09 10° NNE
Cosmos 540 Rocket 3.7 11:12:00 10° SW 11:16:59 49° WNW 11:22:00 10° N
Cosmos 2237 4.3 11:11:53 10° SW 11:17:31 59° WNW 11:23:10 10° NNE
